Simultaneous Nadir Overpasses (SNOs) Predictions

Prediction of SNOs between GOES-15 and LANDSAT-8 Satellite Orbit:

Table of predicted SNOs for the next 14.0 days since TLE Epoch: 8/20/2022
Index Date Time (GOES-15) GOES-15 Lat,Lon LANDSAT-8 Lat,Lon Distance(km) Time Diff (sec)
1 08/20/2022 06:52:32 0.19,-128.02 -0.25,-130.24 251.63 80
2 08/22/2022 06:43:00 0.18,-128.01 0.33,-127.27 83.19 80
3 08/22/2022 19:01:36 -0.21,-128.07 0.74,-132.44 497.10 80
4 08/24/2022 06:30:50 0.18,-127.99 0.98,-124.32 417.52 80
5 08/24/2022 18:49:25 -0.21,-128.05 0.09,-129.48 162.66 80
6 08/26/2022 18:39:53 -0.21,-128.03 -0.50,-126.52 171.37 80
7 08/27/2022 06:58:38 0.24,-127.96 -0.55,-131.72 426.87 80
8 08/29/2022 06:46:26 0.23,-127.93 0.05,-128.75 93.17 80
9 08/31/2022 06:36:54 0.23,-127.90 0.67,-125.79 240.14 80
10 08/31/2022 18:55:30 -0.26,-127.95 0.40,-130.95 341.65 80
11 09/02/2022 18:43:18 -0.25,-127.91 -0.22,-127.99 9.06 80
